User: anonymous   Login
Location: Astronight Observatory
(42.6003°N, 71.2981°W)
Time: 13:49:56
(UTC-04:00)
Language:

DELTA 2 R/B (1) - Orbit

View from above orbital plane
View from above orbital plane
View from above satellite
View from above satellite

Ground track
Ground track

The orbit data is extracted from the following two-line orbital elements,

1 27665U 03005C   15186.16135134 -.00000017  00000-0  27136-4 0  9991
2 27665 039.5750 140.6189 0008830 309.5188 129.0294 14.28347010648958
Epoch (UTC): 05 July 2015 03:52:20
Eccentricity: 0.0008830
inclination: 39.5750°
perigee height: 791 km
apogee height: 803 km
right ascension of ascending node: 140.6189°
argument of perigee: 309.5188°
revolutions per day: 14.28347010
mean anomaly at epoch: 129.0294°
orbit number at epoch: 64895

The dashed part of the orbit path shows where the satellite is in the earth's shadow,  

DLR